Regional Weather Roundup
Issued by NWS Northern Indiana

Home | Current Version | Previous Version | Graphics & Text | Print | Product List | Glossary On
Versions: 1 2 3 4 5 6 7 8 9 10 11 12 13 14 15 16 17 18 19 20 21 22 23 24 25 26 27 28 29 30 31 32 33 34 35 36 37 38 39 40 41 42 43 44 45 46 47 48 49 50
257
ASUS43 KIWX 230310
RWRIWX

KIWX WEATHER ROUNDUP
NATIONAL WEATHER SERVICE NORTHERN INDIANA
1100 PM EDT THU JUN 22 2017

NOTE: "FAIR" INDICATES FEW OR NO CLOUDS BELOW 12,000 FEET WITH NO
SIGNIFICANT WEATHER AND/OR OBSTRUCTIONS TO VISIBILITY.

* THESE STATIONS ARE NOT UNDER NWS QUALITY CONTROL. THEY ALSO MAY NOT
  REPORT WEATHER SUCH AS PRECIPITATION OR FOG.

INZ001>027-230400-
NORTHERN INDIANA

CITY           SKY/WX    TMP DP  RH WIND       PRES   REMARKS
GARY*          CLOUDY    79  68  69 S7        29.75R
VALPARAISO     CLOUDY    76  70  82 S13G22    29.78R
MICHIGAN CITY* CLOUDY    73  68  83 S10G22    29.78R
LAPORTE*       CLOUDY    74  68  80 S12G18    29.79R
KNOX*          CLOUDY    73  59  60 SW10G18   29.78R
SOUTH BEND     MOCLDY    75  68  78 SW16G29   29.78R
GOSHEN         CLEAR     75  66  73 S18G26    29.79R
MONTICELLO*    CLOUDY    74  69  83 S8        29.79F
LOGANSPORT*    CLOUDY    73  66  78 S12       29.82S
ROCHESTER*     MOCLDY    77  68  73 S12G18    29.80S
WARSAW*        PTCLDY    73  64  73 S7G17     29.80S
AUBURN*        MOCLDY    77  64  65 S9        29.83S
FORT WAYNE     MOCLDY    76  67  73 S12       29.83S
HUNTINGTON*    CLOUDY    75  68  78 SW14      29.83S
PERU/GRISSOM   MOCLDY    74  68  82 S16G22    29.80S
MARION*        CLOUDY    73  66  78 S15G21    29.85S

$$
INZ028>050-230400-
CENTRAL INDIANA

CITY           SKY/WX    TMP DP  RH WIND       PRES   REMARKS
LAFAYETTE      CLOUDY    73  69  87 S8        29.79F
KOKOMO*        CLOUDY    75  68  78 S14       29.83F
MUNCIE*        CLOUDY    75  68  78 S10       29.86R
INDIANAPOLIS   DRIZZLE   72  70  93 S10       29.83S

$$
MIZ043>046-050>051-056>058-064>065-071>073-077>080-230400-
SOUTHWEST LOWER MICHIGAN

CITY           SKY/WX    TMP DP  RH WIND       PRES   REMARKS
BATTLE CREEK   MOCLDY    76  69  79 SW16      29.78S
BENTON HARBOR  CLOUDY    79  68  69 S10       29.75R
COLDWATER*     PTCLDY    74  69  85 S7        29.79S
HILLSDALE*     PTCLDY    73  64  73 S9G18     29.81S
HOLLAND        CLOUDY    75  70  84 SW10      29.75R
GRAND RAPIDS   CLOUDY    74  72  93 S10       29.74R
KALAMAZOO      MOCLDY    77  68  73 S13       29.77R
STURGIS*       PTCLDY    73  70  89 S8        29.79S
THREE RIVERS*  FAIR      75  68  79 S10G18    29.79R

$$
OHZ001>008-015>018-024>025-230400-
NORTHWEST OHIO

CITY           SKY/WX    TMP DP  RH WIND       PRES   REMARKS
WAUSEON*         N/A     77  68  73 SW13      29.82S
DEFIANCE       MOCLDY    76  66  71 S13       29.82S
FINDLAY        PTCLDY    77  65  66 S15       29.85S
TOLEDO EXPRESS CLEAR     75  68  78 S10       29.81S
TOLEDO METCALF PTCLDY    78  68  71 S13       29.83R
LIMA           MOCLDY    75  67  76 S9        29.87S

$$
AND FOR LAKE MICHIGAN COASTAL AND OPEN LAKE BUOY OBSERVATIONS

STATION/POSITION TEMP    WIND        PRES    VSBY  WAVE
                 AIR SEA DIR/SP/G                  HT/PER
                 (F)     (DEG/KT/KT) (MB)    (MI)  (FT/S)
CALUMET HARBOR    78     190/ 10/ 16 1006.9R
MICHIGAN CITY     77     180/ 15/ 18   N/A
BURNS HARBOR      77     190/ 12/ 20 1007.8R
SOUTH LAKE BUOY   68 61  190/ 14/ 16 1005.3          1/ 4
4 MI NW BRIDGMAN  74 69  210/ 14/ 16 1007.3          3/ 4
MICHIGAN CITY     74 68  200/ 16/ 19   N/A           2/ 3

$$
&&




USA.gov is the U.S. government's official web portal to all federal, state and local government web resources and services.